Location: ??
(35.5052°N, 139.7262°E)
Time: 03:06:37
(UTC+00:00)

COSMOS 2251 DEB - Pass Details

Date: 06 February 2022
Orbit: 735 x 768 km, 74.0° (Epoch: 25 May)

Event Time Altitude Azimuth Distance (km) Brightness Sun altitude
Rises 09:05:35 0° 337° (NNW) 3,208 ? -11.0°
Reaches altitude 10° 09:07:58 10° 334° (NNW) 2,285 ? -11.5°
Maximum altitude 09:13:03 58° 256° (WSW) 883 ? -12.5°
Drops below altitude 10° 09:18:09 10° 178° (S) 2,290 ? -13.6°
Sets 09:20:32 0° 175° (S) 3,216 ? -14.0°
